Powrót do katalogu

QIANFAN-167

AktywnyŁącznośćPO
NORAD 69384·PAYLOAD·🇨🇳 China

Wystrzelony Jun 4, 2026 z Taiyuan Satellite Launch Center

Loading…

Następne Przeloty (najbliższe 24 godziny)

TLE

ŚwieżeSource: Space-Track

Epoka: Sep 14, 2026, 21:45 UTC

1 69384U 26124C   26257.90676370  .00000130  00000-0  18328-3 0  9994
2 69384  89.0064 352.6012 0002185 107.9752 252.1638 13.51030753 14140

Śledź QIANFAN-167 w czasie rzeczywistym z AllMySat

Download on the App Store